Showing default

COSMOS 2272, 23003

Orbit data source: Space-Track

COSMOS 2272, 23003 is a payload satellite owned by VKS (CIS) in LEO that was launched on Sat, 12 Feb 1994 UTC via a TSIKLON-3 launch vehicle from the Plesetsk Missile And Space Complex (PKMTR). Payload-class satellites include a variety of spacecraft equipped with specific instruments for various scientific and technological missions. These include communications satellites like Starlink; space stations such as the ISS; scientific satellites like the Hubble; Earth observation satellites from companies like Planet Labs, Umbra, and HawkEye 360; GPS; miniature CubeSats for education and research; and military/defense satellites.

Loading next visibility...
Identifier
23003, 1994-011E
Orbit
LEO
Country
Flag of CISCIS
Related business
Manufacturer
NPO PM
Mission
Defense Communications
Bus & Motor
STRELA-3, Unknown motor
Mass
225 kg wet, 225 kg dry
Launch date (UTC)
1994-02-12 (32 years ago)
Launch vehicle
TSIKLON-3
Launch site
Plesetsk Missile And Space Complex (PKMTR)
Object type
Payload
Rocket body
Debris
Shape & HBR
Cyl, 0.8 m
Radar Cross Section
1.257 m², Medium (>0.1 m² and < 1m²)

Expand to show TLE details & history
Last TLE update: 12 hours ago

TLE from 12 hours ago
0 COSMOS 2272
1 23003U 94011E   26125.51335799  .00000012  00000-0  78148-5 0  9997
2 23003  82.5704 318.6929 0010727 250.9342 109.0589 12.64399941487038
Epoch: 2026-05-05T12:19Z
TLE epoch observation values (Epoch: 2026-05-05T12:19:14.130Z)
Latitude
0.00001°
Longitude
-89.5031°
Altitude
1,410.303 km
Speed
7.154 km/s
True Right ascension
21h 14m 46s
True Declination
0° 00' 00"
Sunlit
Object was in daylight at epoch
Visualization orbit readout
Latitude
Unknown
Longitude
Unknown
Altitude
Unknown
Speed
Unknown
Apparent Right ascension
Unknown
Apparent Declination
Unknown
Sunlit
N/A
Visualization observer readout
Local Sidereal Time
07:58:39
Azimuth
Unknown
Elevation
Unknown
Doppler factor
Unknown
Orbital elements
Apogee altitude
1,410.5 km
Perigee altitude
1,393.808 km
Semi-major axis
7,780.291 km
Eccentricity
0.00107
Inclination
82.5704°
RAAN
318.6929°
Arg. of periapsis
250.9342°
True anomaly
109.17503°
Mean anomaly
109.0589°
Eccentric anomaly
109.11697°
Mean motion
3.16264 °/min
Orbital period
113.83 mins
BSTAR
0.0000078148
Loading maneuver chart data...
Computing Atmospheric mass density...
Loading historical data...
Loading historical data...
Loading historical data...
Loading historical data...
Loading historical data...
Loading historical data...
Loading historical data...

Documentation

Showing up to 5 results
|